Weather History for KWLD - November, 2013

Change the Weather History Date:

Tuesday, November 19, 2013

  Actual Average Record
Temperature  
Mean Temperature 52 °F -  
Max Temperature 59 °F 54 °F 77 °F (2007)
Min Temperature 46 °F 34 °F 28 °F (2000)
Degree Days  
Heating Degree Days 12    
Growing Degree Days 2 (Base 50)    
Moisture  
Dew Point 30 °F    
Average Humidity 43    
Maximum Humidity 56    
Minimum Humidity 33    
Precipitation  
Precipitation 0.00 in - - ()
Sea Level Pressure  
Sea Level Pressure 30.07 in    
Wind  
Wind Speed 10 mph (SE)    
Max Wind Speed 23 mph    
Max Gust Speed 30 mph    
Visibility 10 miles    
Events      
Averages and records for this station are not official NWS values.
T = Trace of Precipitation, MM = Missing Value Source: NWS Daily Summary

Daily Weather History Graph

Daily Weather History Graph

Search for Another Location

Airport or City:

Trip Planner

Search our weather history database for the weather conditions in past years. The results will help you decide how hot, cold, wet, or windy it might be!

Date:

Astronomy

Nov. 19, 2013 Rise Set
Actual Time 7:11 AM CST 5:15 PM CST
Civil Twilight 6:43 AM CST 5:43 PM CST
Nautical Twilight 6:11 AM CST 6:15 PM CST
Astronomical Twilight 5:40 AM CST 6:46 PM CST
Moon 7:07 PM CST (11/19) 8:51 AM CST (11/19)
Length of Visible Light 10h 59m
Length of Day
10h 03m
Waning Gibbous, 96% of the Moon is Illuminated
Nov 19
Waning Gibbous
Nov 25
Last Quarter
Dec 2
New
Dec 9
First Quarter
Dec 17
Full

Hourly Weather History & Observations

Time (CST) Temp. Windchill Dew Point Humidity Pressure Visibility Wind Dir Wind Speed Gust Speed Precip Events Conditions
12:54 AM 46.0 °F 43.9 °F 28.0 °F 50% 30.23 in 10.0 mi East 4.6 mph - N/A   Clear
1:54 AM 46.0 °F 44.8 °F 28.0 °F 50% 30.21 in 10.0 mi East 3.5 mph - N/A   Clear
2:54 AM 46.0 °F 42.5 °F 28.0 °F 50% 30.20 in 10.0 mi ESE 6.9 mph - N/A   Clear
3:54 AM 46.0 °F 43.9 °F 28.9 °F 51% 30.19 in 10.0 mi ESE 4.6 mph - N/A   Clear
4:54 AM 46.0 °F 43.9 °F 30.0 °F 54% 30.18 in 10.0 mi ESE 4.6 mph - N/A   Scattered Clouds
5:54 AM 46.9 °F - 30.9 °F 54% 30.17 in 10.0 mi ESE 5.8 mph - N/A   Partly Cloudy
6:54 AM 46.9 °F - 32.0 °F 56% 30.18 in 10.0 mi SE 6.9 mph - N/A   Overcast
7:54 AM 48.0 °F - 33.1 °F 56% 30.17 in 10.0 mi SE 8.1 mph - N/A   Mostly Cloudy
8:54 AM 51.1 °F - 33.1 °F 50% 30.17 in 10.0 mi SSE 12.7 mph 20.7 mph N/A   Overcast
9:54 AM 54.0 °F - 34.0 °F 47% 30.16 in 10.0 mi SSE 15.0 mph 23.0 mph N/A   Overcast
10:54 AM 55.9 °F - 33.1 °F 42% 30.14 in 10.0 mi SSE 18.4 mph 27.6 mph N/A   Overcast
11:54 AM 59.0 °F - 30.0 °F 33% 30.10 in 10.0 mi SSE 17.3 mph 27.6 mph N/A   Overcast
12:54 PM 55.9 °F - 30.0 °F 37% 30.07 in 10.0 mi SSE 20.7 mph 24.2 mph N/A   Overcast
1:54 PM 57.9 °F - 28.9 °F 33% 30.03 in 10.0 mi SSE 23.0 mph 28.8 mph N/A   Overcast
2:54 PM 57.9 °F - 30.0 °F 35% 29.99 in 10.0 mi SSE 16.1 mph 25.3 mph N/A   Overcast
3:54 PM 57.0 °F - 28.0 °F 33% 29.98 in 10.0 mi SSE 18.4 mph 28.8 mph N/A   Overcast
4:54 PM 55.0 °F - 27.0 °F 34% 29.97 in 10.0 mi SSE 21.9 mph 29.9 mph N/A   Partly Cloudy
5:54 PM 53.1 °F - 27.0 °F 37% 29.96 in 10.0 mi SSE 12.7 mph 21.9 mph N/A   Clear
6:54 PM 51.1 °F - 28.0 °F 41% 29.96 in 10.0 mi SSE 12.7 mph - N/A   Clear
7:54 PM 51.1 °F - 28.0 °F 41% 29.96 in 10.0 mi SSE 11.5 mph - N/A   Partly Cloudy
8:54 PM 52.0 °F - 28.9 °F 41% 29.96 in 10.0 mi SE 10.4 mph - N/A   Overcast
9:54 PM 54.0 °F - 28.0 °F 37% 29.95 in 10.0 mi SSE 17.3 mph 24.2 mph N/A   Overcast
10:54 PM 53.1 °F - 28.0 °F 38% 29.94 in 10.0 mi SSE 19.6 mph 27.6 mph N/A   Overcast
11:54 PM 53.1 °F - 28.0 °F 38% 29.93 in 10.0 mi SSE 18.4 mph 25.3 mph N/A   Scattered Clouds